Location: Burzi?i
(45.0869°N, 16.0577°E)
Time: 11:44:38
(UTC+00:00)

USA 306 - Pass Details

Date: 29 October 2020
Orbit: 569 x 577 km, 54.0° (Epoch: 22 November)

Event Time Altitude Azimuth Distance (km) Brightness Sun altitude
Rises 16:17:43 0° 304° (WNW) 2,787 7.1 -5.9°
Reaches altitude 10° 16:20:07 10° 312° (NW) 1,886 6.1 -6.4°
Maximum altitude 16:24:07 37° 21° (NNE) 904 3.7 -7.0°
Drops below altitude 10° 16:28:06 10° 89° (E) 1,876 4.9 -7.7°
Enters shadow 16:28:16 - 90° (E) 1,936 5.0 -7.8°
